Regional Weather Roundup
Issued by NWS Nashville, TN

Home | Current Version | Previous Version | Text Only | Print | Product List | Glossary On
Versions: 1 2 3 4 5 6 7 8 9 10 11 12 13 14 15 16 17 18 19 20 21 22 23 24 25 26 27
000
ASUS44 KOHX 071210
RWROHX
MIDDLE TENNESSEE HOURLY WEATHER ROUNDUP
NATIONAL WEATHER SERVICE NASHVILLE TN
600 AM CST WED DEC 07 2016

NOTE: "FAIR" INDICATES FEW OR NO CLOUDS BELOW 12,000 FEET WITH
NO SIGNIFICANT WEATHER AND/OR OBSTRUCTIONS TO VISIBILITY.

* THESE REPORTS ARE NOT UNDER NWS QUALITY CONTROL AND MAY NOT
  REPORT WEATHER SUCH AS PRECIPITATION AND FOG.


TNZ005>011-023>034-057-059-062>066-078-080-071300
...NORTHERN MIDDLE TENNESSEE...

CITY           SKY/WX    TMP DP  RH WIND       PRES   REMARKS
CLARKSVILLE    CLOUDY    32  29  88 N3        30.16R FOG
CROSSVILLE     CLOUDY    37  33  85 NE7       30.07R WCI  32
GALLATIN       CLEAR     36  34  93 N5        30.16F WCI  32
LEBANON        PTCLDY    35  32  89 N3        30.11R
NASHVILLE      PTCLDY    36  31  82 N6        30.15R WCI  31
PORTLAND       PTCLDY    34  34 100 CALM      30.13S FOG
SMYRNA         CLOUDY    37  33  85 N7        30.15R WCI  32
SPRINGFIELD    CLOUDY    34  32  93 CALM      30.14R FOG
WEST NASHVILLE CLEAR     34  32  93 N3        30.15R
$$
TNZ056-058-060-061-075>077-079-093>097-071300
...SOUTHERN MIDDLE TENNESSEE...

CITY           SKY/WX    TMP DP  RH WIND       PRES   REMARKS
COLUMBIA       CLOUDY    37  37 100 N5        30.11R WCI  34
FAYETTEVILLE   CLOUDY    39  37  93 N8        30.09R WCI  34
MCMINNVILLE    CLOUDY    39  36  87 N8          N/A  WCI  34
MURFREESBORO   CLOUDY    38  34  85 N6        30.12R WCI  33
SHELBYVILLE    CLOUDY    39  37  93 N6        30.11S WCI  35
TULLAHOMA      CLOUDY    37  36  93 N6        30.09S WCI  33
WINCHESTER     CLOUDY    39  36  87 N8        30.09R WCI  34
$$


...KEY TO REMARKS...
VSB - VISIBILITY IN MILES
WCI - WIND CHILL INDEX
HX  - HEAT INDEX





USA.gov is the U.S. government's official web portal to all federal, state and local government web resources and services.